"Pseudo-MPEC" for P21kCgw

Created 2021 Sep 20 16:07:13 UT using Find_Orb

Click here for an explanation of pseudo-MPECs

 
 Astrometry: 
     P21kCgw  C2021 09 09Yvbye0K)Cpp)g]tGG:NtAuq:5;%%I9AEU@0ekmc;F]!u*#i2w0-HF52
     P21kCgw  C2021 09 096H]+'Tt]P#doH22PYU+.9.wK_-YaC[DO:)7w]AT6W4Iu\*#jC2gnF52
     P21kCgw  C2021 09 09Kt'Astrometry3q1YL*JIAk$w[[1*0)@:-d7sQ_D%gWw]Cwo[fW1F52
     P21kCgw  C2021 09 09vTm1@QAIr50\L]hf(G-9Dj\v-+1Mredacted;$h9C,f=7a@cwQ#4F51
     P21kCgw  C2021 09 09hip5P04AF0(RA/VdH0-Tv$F8D/5u/ldQclick6ZgfDUaEeiQ`yaJF51
     P21kCgw KC2021 09 10Gq1VH5:41)/uuMLeb9,`Hm+3]6N6wR]ImK-IeA5nQ0CX\/@Po[xbH21
     P21kCgw KC2021 09 10ffyWn5TFM#dt(rDm9YaDi+W%nQUc2.%StY0BHdhOB-JJYnrLMYKpH21
     P21kCgw  C2021 09 10(uf3+)F9cygBc/jMw@I^DNq8FD?Yo5RQddod.e=u-*QT\KWto+laF51
     P21kCgw  C2021 09 10Q6e_o=jZ5.)7s86heregcqL;K.@\\6hNQsX^W'Ufor!;k0E\]]_MF51
     P21kCgw  C2021 09 10$DPqI88`u(N#Y!vk`Sso/4`explanationsYCVp\]O8\%0_Em*MpF51

Station data:
(F51) Pan-STARRS 1, Haleakala  (N20.707235 W156.255910)  US/Hawaii.
   Observers N. Primak, A. Schultz, S. Watters, J. Thiel, T. Goggia. Measurer
   PS1 Science Consortium. 1.8-m Ritchey-Chrétien + CCD.
(F52) Pan-STARRS 2, Haleakala  (N20.707384 W156.255910)  US/Hawaii. 1.8-m
   Ritchey-Chrétien + CCD.
(H21) Astronomical Research Observatory, Westfield  (N39.483057 W87.968270)
   US/Illinois. 0.76-m f/3.0 astrograph + CCD.

Orbital elements:  P21kCgw
   Perihelion 2021 Jun 13.339434 +/- 15.5389 TT =  8:08:47 (JD 2459378.839434)
Epoch 2021 Sep 10.0 TT = JDT 2459467.5   Earth MOID: 0.0764   AutoNEOCP
M  22.91513860 +/- 22.600003        (J2000 ecliptic)
n   0.25845919 +/- 0.163164         Peri.  305.39024 +/- 2.5595069
a   2.44085168 +/- 1.02682          Node   321.46697 +/- 5.0800788
e   0.6107877 +/- 0.186585          Incl.   18.02376 +/- 2.6849980
P   3.81                   H 22.2   G  0.15   U 11.5  
q 0.95000942 +/- 0.0393912    Q 3.93169395 +/- 1.50922
From 10 observations 2021 Sept. 9-10 (24.5 hr); mean residual 0".10
Residuals in arcseconds: 
210909 F52  .13-  .02+    210909 F51  .02+  .14+    210910 F51  .09-  .00     
210909 F52  .05+  .00     210910 H21  .05-  .09+    210910 F51  .08+  .17-    
210909 F52  .03+  .07-    210910 H21  .11-  .16+    
210909 F51  .05+  .10-    210910 F51  .20+  .16-    

Ephemerides (geocentric):
Date (UTC) HH   RA              Dec         delta   r     elong  mag " sig PA
---- -- -- --  -------------   -----------  ------ ------ -----  --- ---- ---
2021 09 20 16  23 00 55.483   +25 17 47.67  .60783 1.5640 151.1 23.0  525  73
2021 09 20 17  23 00 51.615   +25 17 28.92  .60822 1.5644 151.1 23.0  528  73
2021 09 20 18  23 00 47.754   +25 17 10.15  .60862 1.5647 151.1 23.0  531  73
2021 09 20 19  23 00 43.900   +25 16 51.33  .60901 1.5651 151.1 23.0  535  73
2021 09 20 20  23 00 40.053   +25 16 32.48  .60940 1.5654 151.1 23.0  538  73
2021 09 20 21  23 00 36.214   +25 16 13.60  .60979 1.5658 151.1 23.0  541  73
2021 09 20 22  23 00 32.383   +25 15 54.68  .61019 1.5661 151.1 23.0  545  73
2021 09 20 23  23 00 28.558   +25 15 35.72  .61058 1.5665 151.1 23.0  548  73
2021 09 21 00  23 00 24.741   +25 15 16.73  .61098 1.5668 151.0 23.0  551  73
2021 09 21 01  23 00 20.931   +25 14 57.70  .61137 1.5672 151.0 23.0  555  73
2021 09 21 02  23 00 17.129   +25 14 38.63  .61177 1.5675 151.0 23.0  558  73
2021 09 21 03  23 00 13.334   +25 14 19.53  .61216 1.5679 151.0 23.0  561  73
2021 09 21 04  23 00 09.546   +25 14 00.40  .61256 1.5683 151.0 23.0  565  72
2021 09 21 05  23 00 05.766   +25 13 41.23  .61295 1.5686 151.0 23.0  568  72
2021 09 21 06  23 00 01.993   +25 13 22.03  .61335 1.5690 151.0 23.0  572  72
2021 09 21 07  22 59 58.227   +25 13 02.79  .61375 1.5693 151.0 23.0  575  72
2021 09 21 08  22 59 54.468   +25 12 43.52  .61414 1.5697 151.0 23.0  578  72
2021 09 21 09  22 59 50.717   +25 12 24.21  .61454 1.5700 151.0 23.0  582  72
2021 09 21 10  22 59 46.973   +25 12 04.87  .61494 1.5704 151.0 23.0  585  72
2021 09 21 11  22 59 43.237   +25 11 45.49  .61533 1.5707 151.0 23.0  589  72
2021 09 21 12  22 59 39.508   +25 11 26.08  .61573 1.5711 151.0 23.0  592  72
2021 09 21 13  22 59 35.786   +25 11 06.64  .61613 1.5714 151.0 23.0  595  72
2021 09 21 14  22 59 32.071   +25 10 47.16  .61653 1.5718 151.0 23.0  599  72
2021 09 21 15  22 59 28.364   +25 10 27.65  .61693 1.5721 151.0 23.0  602  72
2021 09 21 16  22 59 24.664   +25 10 08.11  .61733 1.5725 151.0 23.0  606  72
2021 09 21 17  22 59 20.972   +25 09 48.53  .61772 1.5728 151.0 23.0  609  72
2021 09 21 18  22 59 17.286   +25 09 28.92  .61812 1.5732 151.0 23.0  612  72
2021 09 21 19  22 59 13.608   +25 09 09.28  .61852 1.5736 151.0 23.0  616  72
2021 09 21 20  22 59 09.938   +25 08 49.61  .61892 1.5739 151.0 23.0  619  72
2021 09 21 21  22 59 06.274   +25 08 29.90  .61932 1.5743 151.0 23.0  623  72
2021 09 21 22  22 59 02.618   +25 08 10.16  .61972 1.5746 151.0 23.1  626  72
2021 09 21 23  22 58 58.969   +25 07 50.38  .62013 1.5750 151.0 23.1  630  72
2021 09 22 00  22 58 55.328   +25 07 30.58  .62053 1.5753 151.0 23.1  633  72
2021 09 22 01  22 58 51.694   +25 07 10.74  .62093 1.5757 150.9 23.1  636  72
2021 09 22 02  22 58 48.067   +25 06 50.87  .62133 1.5760 150.9 23.1  640  72
2021 09 22 03  22 58 44.447   +25 06 30.97  .62173 1.5764 150.9 23.1  643  72
2021 09 22 04  22 58 40.834   +25 06 11.04  .62213 1.5767 150.9 23.1  647  72
2021 09 22 05  22 58 37.229   +25 05 51.07  .62254 1.5771 150.9 23.1  650  72
2021 09 22 06  22 58 33.631   +25 05 31.08  .62294 1.5774 150.9 23.1  654  72
2021 09 22 07  22 58 30.041   +25 05 11.05  .62334 1.5778 150.9 23.1  657  72
2021 09 22 08  22 58 26.458   +25 04 50.99  .62375 1.5782 150.9 23.1  661  72
2021 09 22 09  22 58 22.881   +25 04 30.90  .62415 1.5785 150.9 23.1  664  72
2021 09 22 10  22 58 19.313   +25 04 10.78  .62456 1.5789 150.9 23.1  668  71
2021 09 22 11  22 58 15.751   +25 03 50.63  .62496 1.5792 150.9 23.1  671  71
2021 09 22 12  22 58 12.197   +25 03 30.45  .62536 1.5796 150.9 23.1  675  71
2021 09 22 13  22 58 08.650   +25 03 10.23  .62577 1.5799 150.9 23.1  678  71
2021 09 22 14  22 58 05.110   +25 02 49.99  .62617 1.5803 150.9 23.1  682  71
2021 09 22 15  22 58 01.577   +25 02 29.72  .62658 1.5806 150.9 23.1  685  71